Location: Home
(42.5358°N, 72.7383°W)
Time: 09:03:44
(UTC-05:00)

Courier 1B - Pass Details

Date: 05 December 2021
Orbit: 962 x 1209 km, 28.3° (Epoch: 21 January)

Event Time Altitude Azimuth Distance (km) Brightness Sun altitude
Rises 16:47:22 0° 239° (WSW) 4,050 13.4 -5.6°
Reaches altitude 10° 16:50:46 10° 227° (SW) 3,056 11.6 -6.2°
Maximum altitude 16:56:40 25° 175° (S) 2,073 9.5 -7.2°
Drops below altitude 10° 17:02:20 10° 123° (ESE) 2,917 9.7 -8.1°
Sets 17:05:30 0° 111° (ESE) 3,830 10.2 -8.7°
